This is the latest recevied weather packets stored in our database for station/object KY4GW. If no packets are shown the sender has not sent any weather packets the latest 10 day(s).
| Time | Temp. | Humidity | Pressure | Rain* | Wind** | Luminosity | Snow |
|---|---|---|---|---|---|---|---|
| 1777776661 | 5.56° C | 77% | 1021.4 hPa | 0 mm | - | 0 W/m² | - |
| 1777776356 | 6.67° C | 76% | 1021.4 hPa | 0 mm | - | 0 W/m² | - |
| 1777776054 | 6.67° C | 76% | 1021.4 hPa | 0 mm | - | 0 W/m² | - |
| 1777775751 | 6.67° C | 64% | 1021.4 hPa | 0 mm | - | 0 W/m² | - |
| 1777775448 | 6.11° C | 65% | 1021.4 hPa | 0 mm | - | 0 W/m² | - |
| 1777775144 | 5.56° C | 71% | 1021.1 hPa | 0 mm | - | 0 W/m² | - |
| 1777774839 | 5.56° C | 79% | 1021.1 hPa | 0 mm | - | 0 W/m² | - |
| 1777774536 | 6.11° C | 79% | 1021.1 hPa | 0 mm | - | 0 W/m² | - |
| 1777774233 | 6.11° C | 78% | 1021.1 hPa | 0 mm | - | 0 W/m² | - |
| 1777773930 | 6.67° C | 77% | 1021.1 hPa | 0 mm | - | 0 W/m² | - |
| 1777773627 | 6.11° C | 68% | 1021.1 hPa | 0 mm | - | 0 W/m² | - |
| 1777773323 | 6.11° C | 74% | 1021.1 hPa | 0 mm | - | 0 W/m² | - |
| 1777773021 | 6.11° C | 76% | 1021.1 hPa | 0 mm | - | 0 W/m² | - |
| 1777772717 | 6.67° C | 74% | 1021.1 hPa | 0 mm | - | 0 W/m² | - |
| 1777772415 | 6.67° C | 74% | 1020.7 hPa | 0 mm | - | 0 W/m² | - |
| 1777772112 | 7.22° C | 72% | 1020.7 hPa | 0 mm | - | 0 W/m² | - |
| 1777771809 | 7.22° C | 71% | 1020.7 hPa | 0 mm | - | 0 W/m² | - |
| 1777771507 | 7.78° C | 73% | 1020.4 hPa | 0 mm | - | 0 W/m² | - |
| 1777771202 | 7.78° C | 72% | 1020.4 hPa | 0 mm | - | 0 W/m² | - |
| 1777770900 | 8.33° C | 73% | 1020.4 hPa | 0 mm | - | 0 W/m² | - |
| 1777770597 | 7.78° C | 66% | 1020.4 hPa | 0 mm | - | 0 W/m² | - |
| 1777770293 | 7.78° C | 71% | 1020.4 hPa | 0 mm | - | 0 W/m² | - |
| 1777769991 | 7.78° C | 72% | 1020.1 hPa | 0 mm | - | 0 W/m² | - |
| 1777769688 | 8.33° C | 72% | 1020.1 hPa | 0 mm | - | 0 W/m² | - |
| 1777769384 | 8.33° C | 70% | 1020.1 hPa | 0 mm | - | 0 W/m² | - |
* Rain latest hour (hover to see other rain measurements)
** Current wind speed in m/s (hover to see current wind gust speed)